Location: Newark
(3.0500°N, 36.0167°E)
Time: 18:22:04
(UTC+00:00)

A-11 Canister half - Pass Details

Date: 28 August 2019
Orbit: 1527 x 1682 km, 47.3° (Epoch: 22 September)

Event Time Altitude Azimuth Distance (km) Brightness Sun altitude
Rises 17:03:33 0° 311° (NW) 4,907 12.7 -20.7°
Reaches altitude 10° 17:06:48 10° 307° (NW) 3,908 12.0 -21.5°
Maximum altitude 17:16:32 57° 231° (SW) 1,863 9.5 -23.9°
Enters shadow 17:24:19 17° 158° (SSE) 3,304 10.4 -25.8°
Drops below altitude 10° 17:26:00 10° 154° (SSE) 3,800 - -26.2°
Sets 17:29:09 0° 150° (SSE) 4,765 - -26.9°
